sat.trackr.live / text

‹ back to catalog

STARLINK-4144

NORAD 53257 · 2022-086R

PAYLOAD ACTIVE UNKNOWN

§ Identity

Operator
Country
US
Launch date
2022-07-24
Launch site
AFETR
Launch vehicle
Mass (kg)
RCS (m²)

Purposes: comms

External: N2YO · Heavens-Above · Gunter

§ Orbital elements

Epoch: 2026-05-24T22:08:24.668736Z

Period
95.44 min
Inclination
53.2136°
Eccentricity
0.0001327
Mean motion
15.08838191 rev/d
Perigee alt
538.8 km
Apogee alt
540.7 km
Semi-major
6,917.9 km
B*
-1.4546e-5
RAAN
211.8993°
Arg perigee
85.0783°
Mean anomaly
275.0360°
Rev number
21,257

§ Raw data

STARLINK-41441 53257U 22086R   26144.92250774 -.00000519  00000+0 -14546-4 0  99932 53257  53.2136 211.8993 0001327  85.0783 275.0360 15.08838191212575

JSON: /api/v1/satellites/53257 · /tle

For live sub-satellite position, see the globe view (requires WebGL).

§ Visibility from observer

Set your observer location to see the next 7 days of passes ≥ 10°. The values pass through the URL so the page stays shareable.

No JS? Fill the form by hand. The geolocation button needs JavaScript.